Regional Weather Roundup
Issued by NWS

Home | Current Version | Previous Version | Graphics & Text | Print | Product List | Glossary On
Versions: 1 2 3 4 5 6 7 8 9 10 11 12 13 14 15 16 17 18 19 20 21 22 23 24 25 26 27 28 29 30 31 32 33 34 35 36 37 38 39 40 41 42 43 44 45 46 47 48 49 50
000
ASUS43 KFSD 270210
RWRSD

WEATHER ROUNDUP FOR SOUTH DAKOTA
NATIONAL WEATHER SERVICE SIOUX FALLS SD
900 PM CDT THU MAR 26 2015

NOTE: "FAIR" INDICATES FEW OR NO CLOUDS BELOW 12,000 FEET WITH NO
SIGNIFICANT WEATHER AND/OR OBSTRUCTIONS TO VISIBILITY.


SDZ001>005-009-010-012>017-270300-
NORTHWEST AND NORTH CENTRAL SOUTH DAKOTA

CITY           SKY/WX    TMP DP  RH WIND       PRES   REMARKS
BUFFALO          N/A     39  32  76 E9        30.08R
FAITH            N/A     33  27  78 SE7       30.19R WCI  27
MOBRIDGE       CLOUDY    36  20  52 NE9       30.21R
$$

SDZ012>016-024>037-041>051-057-063-072>074-270300-
SOUTHWEST AND SOUTH CENTRAL SOUTH DAKOTA

CITY           SKY/WX    TMP DP  RH WIND       PRES   REMARKS
RAPID CTY ARPT CLOUDY    38  28  67 E12       30.15R
PIERRE         CLOUDY    34  30  85 W5        30.22R WCI  30
CUSTER         CLOUDY    39  27  62 N3        30.10F
ELLSWORTH AFB  CLOUDY    39  28  65 SE13      30.14R
PHILIP         CLOUDY    32  25  75 E3        30.21R
PINE RIDGE     CLOUDY    40  27  59 E7        30.15R
SPEARFISH      MOCLDY    41  32  70 W8        30.13S
WINNER         CLOUDY    34  29  82 CALM      30.22S
$$

SDZ004>011-016>023-039-040-270300-
NORTHEAST SOUTH DAKOTA

CITY           SKY/WX    TMP DP  RH WIND       PRES   REMARKS
ABERDEEN       CLEAR     28  13  53 NE9       30.27R WCI  19
WATERTOWN      CLEAR     22  13  68 N9        30.22R WCI  12
SISSETON         N/A     26  15  63 N13       30.27R WCI  15
$$

SDZ017-020-022-023-036>040-048>070-270300-
SOUTHEAST SOUTH DAKOTA

CITY           SKY/WX    TMP DP  RH WIND       PRES   REMARKS
SIOUX FALLS    PTCLDY    29  18  63 N12       30.21R WCI  19
HURON          CLEAR     29  14  53 NE10      30.25R WCI  20
CHAMBERLAIN    CLOUDY    32  28  83 NW3       30.22S
MITCHELL       CLEAR     31  19  61 N10       30.24R WCI  22
YANKTON        CLOUDY    36  25  64 NW8       30.22R
$$

ABBREVIATIONS USED IN REMARKS
   TC - TEMPERATURE IN CELSIUS
  WCI - WIND CHILL INDEX
   HX - HEAT INDEX
  VSB - VISIBILITY




USA.gov is the U.S. government's official web portal to all federal, state and local government web resources and services.